DECAYED

COSMOS 2251 DEB, 34954 (Decayed)

Orbit data source: Space-Track

COSMOS 2251 DEB, 34954 was space debris in LEO originally from a launch on Wed, 16 Jun 1993 UTC launched from the Plesetsk Missile And Space Complex (PKMTR). The debris from Iridium 33, an American commercial communications satellite, has been tracked extensively since its accidental collision with the defunct Russian satellite Cosmos 2251 in 2009. This event, occurring at high speed in low Earth orbit (LEO), generated thousands of pieces of space debris, significantly increasing the risk of further collisions. The Iridium 33 debris cloud has impacted space traffic management and orbital debris mitigation strategies, making it a subject of ongoing study in space situational awareness.

Not visible in the next 10 days
Identifier
34954, 1993-036AEH
Orbit
Decayed
Country
Flag of CISCIS
Related business
Manufacturer
Unknown
Mission
Decayed spacecraft
Bus & Motor
Unknown
Mass
Unknown
Launch date (UTC)
1993-06-16 (33 years ago)
Launch vehicle
Unknown
Launch site
Plesetsk Missile And Space Complex (PKMTR)
Object type
Payload
Rocket body
Debris
Shape & HBR
Unknown shape, 0.1 m
Radar Cross Section
Small (<0.1 m²)

Expand to show TLE details & history
Last TLE update: 1 year ago

TLE from 1 year ago
0 COSMOS 2251 DEB
1 34954U 93036AEH 25105.40873718  .00163610  00000-0  65789-2 0  9991
2 34954  73.9638 128.6360 0024033 297.5842  62.2916 15.23880308844480
Epoch: 2025-04-15T09:48Z
TLE epoch observation values (Epoch: 2025-04-15T09:48:34.892Z)
Latitude
-0.00001°
Longitude
137.68085°
Altitude
489.212 km
Speed
7.625 km/s
True Right ascension
08h 34m 32s
True Declination
0° 00' 00"
Sunlit
Object was in daylight at epoch
Visualization orbit readout
Latitude
Unknown
Longitude
Unknown
Altitude
Unknown
Speed
Unknown
Apparent Right ascension
Unknown
Apparent Declination
Unknown
Sunlit
N/A
Visualization observer readout
Local Sidereal Time
06:19:39
Azimuth
Unknown
Elevation
Unknown
Doppler factor
Unknown
Orbital elements
Apogee altitude
508.194 km
Perigee altitude
475.174 km
Semi-major axis
6,869.821 km
Eccentricity
0.0024
Inclination
73.9638°
RAAN
128.636°
Arg. of periapsis
297.5842°
True anomaly
62.53576°
Mean anomaly
62.2916°
Eccentric anomaly
62.41364°
Mean motion
3.81176 °/min
Orbital period
94.44 mins
BSTAR
0.0065789

Documentation

Showing up to 5 results
|